Farmington, NM

2:21 PM MDT on September 26, 2017 (GMT -0600)
Four Corners Regional

Weather History for KFMN - July, 2013

Change the Weather History Date:

Wednesday, July 3, 2013

  Actual Average Record
Temperature  
Mean Temperature 80 °F -  
Max Temperature 96 °F 91 °F 102 °F (2007)
Min Temperature 64 °F 57 °F 46 °F (2004)
Cooling Degree Days 15    
Growing Degree Days 30 (Base 50)    
Moisture  
Dew Point 44 °F    
Average Humidity 32    
Maximum Humidity 63    
Minimum Humidity 8    
Precipitation  
Precipitation 0.00 in - - ()
Sea Level Pressure  
Sea Level Pressure 29.87 in    
Wind  
Wind Speed 13 mph (ENE)    
Max Wind Speed 26 mph    
Max Gust Speed 34 mph    
Visibility 10 miles    
Events      
Averages and records for this station are not official NWS values.
T = Trace of Precipitation, MM = Missing Value Source: NWS Daily Summary

Daily Weather History Graph

Daily Weather History Graph

Search for Another Location

Airport or City:

Trip Planner

Search our weather history database for the weather conditions in past years. The results will help you decide how hot, cold, wet, or windy it might be!

Date:

Astronomy

Jul. 03, 2013 Rise Set
Actual Time 5:58 AM MDT 8:35 PM MDT
Civil Twilight 5:28 AM MDT 9:05 PM MDT
Nautical Twilight 4:50 AM MDT 9:43 PM MDT
Astronomical Twilight 4:08 AM MDT 10:25 PM MDT
Moon 2:35 AM MDT (7/3) 4:51 PM MDT (7/3)
Length of Visible Light 15h 37m
Length of Day
14h 36m
Waning Crescent, 18% of the Moon is Illuminated
Jul 3
Waning Crescent
Jul 8
New
Jul 15
First Quarter
Jul 22
Full
Jul 29
Last Quarter

Hourly Weather History & Observations

Time (MDT) Temp. Dew Point Humidity Pressure Visibility Wind Dir Wind Speed Gust Speed Precip Events Conditions
12:53 AM 71.1 °F 46.0 °F 41% 29.92 in 10.0 mi ESE 24.2 mph - N/A   Clear
1:53 AM 69.1 °F 48.0 °F 47% 29.93 in 10.0 mi East 12.7 mph - N/A   Clear
2:53 AM 68.0 °F 48.0 °F 49% 29.94 in 10.0 mi East 8.1 mph - N/A   Clear
3:53 AM 66.0 °F 48.9 °F 54% 29.96 in 10.0 mi ENE 10.4 mph - N/A   Clear
4:53 AM 64.9 °F 51.1 °F 61% 29.95 in 10.0 mi East 12.7 mph - N/A   Clear
5:53 AM 64.0 °F 51.1 °F 63% 29.96 in 10.0 mi East 12.7 mph - N/A   Clear
6:53 AM 64.9 °F 52.0 °F 63% 29.97 in 10.0 mi ENE 10.4 mph - N/A   Clear
7:53 AM 68.0 °F 52.0 °F 56% 29.98 in 10.0 mi ENE 10.4 mph - N/A   Clear
8:53 AM 71.1 °F 51.1 °F 49% 29.98 in 10.0 mi East 10.4 mph - N/A   Clear
9:53 AM 73.9 °F 50.0 °F 43% 29.96 in 10.0 mi Variable 5.8 mph - N/A   Clear
10:53 AM 78.1 °F 48.9 °F 36% 29.94 in 10.0 mi East 6.9 mph - N/A   Clear
11:53 AM 79.0 °F 48.0 °F 34% 29.91 in 10.0 mi Calm Calm - N/A   Clear
12:53 PM 84.0 °F 46.0 °F 26% 29.89 in 10.0 mi Variable 3.5 mph - N/A   Clear
1:53 PM 87.1 °F 45.0 °F 23% 29.86 in 10.0 mi Variable 4.6 mph - N/A   Clear
2:53 PM 87.1 °F 43.0 °F 21% 29.82 in 10.0 mi Calm Calm - N/A   Partly Cloudy
3:53 PM 91.9 °F 41.0 °F 17% 29.78 in 10.0 mi West 11.5 mph 19.6 mph N/A   Clear
4:53 PM 91.9 °F 39.9 °F 16% 29.73 in 10.0 mi WSW 13.8 mph 19.6 mph N/A   Clear
5:53 PM 93.0 °F 37.9 °F 15% 29.67 in 10.0 mi NNW 8.1 mph - N/A   Clear
6:18 PM 95.0 °F 26.6 °F 9% 29.88 in 10.0 mi NNW 19.6 mph 29.9 mph N/A   Clear
6:53 PM 95.0 °F 23.0 °F 8% 29.65 in 10.0 mi NNW 26.5 mph 34.5 mph N/A   Clear
7:53 PM 91.9 °F 25.0 °F 9% 29.70 in 10.0 mi NE 19.6 mph 27.6 mph N/A   Clear
8:03 PM 84.2 °F 41.0 °F 22% 29.93 in 10.0 mi East 13.8 mph 23.0 mph N/A   Clear
8:15 PM 82.4 °F 42.8 °F 25% 29.94 in 10.0 mi East 20.7 mph 24.2 mph N/A   Clear
8:53 PM 80.1 °F 43.0 °F 27% 29.78 in 10.0 mi ESE 18.4 mph - N/A   Clear
9:53 PM 77.0 °F 45.0 °F 32% 29.82 in 10.0 mi East 19.6 mph 26.5 mph N/A   Clear
10:53 PM 75.9 °F 43.0 °F 31% 29.82 in 10.0 mi East 19.6 mph - N/A   Clear
11:53 PM 75.0 °F 43.0 °F 32% 29.84 in 9.0 mi East 9.2 mph - N/A   Clear